Location: Zagreb
(45.8000°N, 16.0000°E)
Time: 08:21:19
(UTC+01:00)

N. Korean satellite - Pass Details

Date: 05 December 2021
Orbit: 447 x 491 km, 97.3° (Epoch: 23 January)

Event Time Altitude Azimuth Distance (km) Brightness Sun altitude
Rises 05:21:21 0° 10° (N) 2,467 10.1 -20.1°
Reaches altitude 10° 05:23:23 10° 9° (N) 1,586 9.1 -19.8°
Maximum altitude 05:26:47 77° 284° (WNW) 465 6.2 -19.2°
Drops below altitude 10° 05:30:08 10° 198° (SSW) 1,570 9.1 -18.6°
Sets 05:32:09 0° 197° (SSW) 2,438 10.1 -18.3°
